Washington, NE

1:03 AM CST on February 13, 2016 (GMT -0600)
Blair Municipal

Weather History for KBTA - April, 2013

Change the Weather History Date:

Wednesday, April 10, 2013

  Actual Average (KOMA) Record (KOMA)
Temperature  
Mean Temperature 34 °F 50 °F  
Max Temperature 35 °F 62 °F 93 °F (1930)
Min Temperature 32 °F 38 °F 19 °F (1989)
Degree Days  
Heating Degree Days 32 16  
Month to date heating degree days 173  
Since 1 July heating degree days 5762  
Cooling Degree Days 0 0  
Month to date cooling degree days 0  
Year to date cooling degree days 1  
Moisture  
Dew Point 33 °F    
Average Humidity 94    
Maximum Humidity 97    
Minimum Humidity 90    
Precipitation  
Precipitation 0.31 in 0.09 in 1.38 in (1944)
Month to date precipitation 0.85  
Year to date precipitation 4.41  
Snow  
Snow 0.00 in 0.00 in - ()
Month to date snowfall 0.5  
Since 1 July snowfall 25.9  
Snow Depth -    
Sea Level Pressure  
Sea Level Pressure 29.87 in    
Wind  
Wind Speed 15 mph (NNW)    
Max Wind Speed 31 mph    
Max Gust Speed 39 mph    
Visibility 4 miles    
Events Rain , Snow , Thunderstorm    
T = Trace of Precipitation, MM = Missing Value Source: NWS Daily Summary

Daily Weather History Graph

Daily Weather History Graph

Search for Another Location

Airport or City:

Trip Planner

Search our weather history database for the weather conditions in past years. The results will help you decide how hot, cold, wet, or windy it might be!

Date:

Astronomy

Apr. 10, 2013 Rise Set
Actual Time 6:52 AM CDT 7:59 PM CDT
Civil Twilight 6:23 AM CDT 8:28 PM CDT
Nautical Twilight 5:50 AM CDT 9:02 PM CDT
Astronomical Twilight 5:14 AM CDT 9:37 PM CDT
Moon 6:48 AM CDT (4/10) 8:37 PM CDT (4/10)
Length of Visible Light 14h 04m
Length of Day
13h 07m
New Moon, 0% of the Moon is Illuminated
Apr 10
New Moon
Apr 18
First Quarter
Apr 25
Full
May 2
Last Quarter
May 9
New

Hourly Weather History & Observations

Time (CDT) Temp. Windchill Dew Point Humidity Pressure Visibility Wind Dir Wind Speed Gust Speed Precip Events Conditions
12:15 AM 34.7 °F 25.1 °F 32.9 °F 93% 29.93 in 10.0 mi NNW 15.0 mph - 0.01 in Rain , Thunderstorm Light Thunderstorms and Rain
12:35 AM 34.7 °F 25.5 °F 32.9 °F 93% 29.97 in 3.0 mi NW 13.8 mph 17.3 mph 0.06 in Rain , Thunderstorm Heavy Thunderstorms and Rain
12:55 AM 34.2 °F 23.3 °F 32.4 °F 93% 29.91 in 2.0 mi NNW 18.4 mph 24.2 mph 0.15 in Snow , Thunderstorm Light Thunderstorms and Snow
1:15 AM 33.8 °F 20.1 °F 32.2 °F 94% 29.79 in 2.0 mi NNE 29.9 mph 36.8 mph 0.08 in Snow , Thunderstorm Light Thunderstorms and Snow
1:35 AM 34.3 °F 23.5 °F 32.9 °F 94% 29.96 in 7.0 mi West 18.4 mph 32.2 mph 0.10 in Rain Light Rain
1:55 AM 34.2 °F 25.2 °F 32.5 °F 94% 29.88 in 7.0 mi NNW 12.7 mph 18.4 mph 0.11 in Rain , Thunderstorm Light Thunderstorms and Rain
2:15 AM 34.2 °F 23.6 °F 32.5 °F 94% 29.88 in 10.0 mi NNW 17.3 mph 20.7 mph N/A   Overcast
2:35 AM 34.0 °F 20.1 °F 32.4 °F 94% 29.77 in 7.0 mi North 31.1 mph 39.1 mph N/A   Overcast
2:55 AM 34.3 °F 23.2 °F 32.9 °F 94% 29.90 in 10.0 mi NW 19.6 mph 26.5 mph N/A   Overcast
3:15 AM 34.3 °F 23.2 °F 32.5 °F 93% 29.91 in 4.0 mi NNW 19.6 mph 27.6 mph N/A   Overcast
3:35 AM 34.2 °F 23.3 °F 32.7 °F 94% 29.87 in 3.0 mi North 18.4 mph 29.9 mph N/A   Overcast
3:55 AM 34.3 °F 23.2 °F 32.9 °F 94% 29.85 in 2.5 mi North 19.6 mph 25.3 mph N/A   Light Drizzle
4:15 AM 34.7 °F 25.1 °F 33.3 °F 94% 29.86 in 2.5 mi North 15.0 mph 27.6 mph N/A   Overcast
4:35 AM 34.9 °F 24.6 °F 33.4 °F 94% 29.85 in 3.0 mi North 17.3 mph 24.2 mph N/A   Overcast
4:55 AM 35.1 °F 23.8 °F 33.6 °F 94% 29.82 in 5.0 mi North 20.7 mph 25.3 mph N/A   Overcast
5:15 AM 35.1 °F 25.5 °F 33.6 °F 94% 29.85 in 7.0 mi NNW 15.0 mph 25.3 mph N/A   Overcast
5:35 AM 35.1 °F 26.4 °F 33.4 °F 94% 29.88 in 7.0 mi North 12.7 mph - N/A   Overcast
5:55 AM 35.1 °F 25.5 °F 33.4 °F 94% 29.89 in 7.0 mi North 15.0 mph 19.6 mph N/A   Overcast
6:15 AM 35.1 °F 25.9 °F 33.4 °F 94% 29.88 in 4.0 mi North 13.8 mph 17.3 mph N/A   Overcast
6:35 AM 35.1 °F 25.5 °F 33.4 °F 94% 29.85 in 3.0 mi North 15.0 mph - N/A   Overcast
6:55 AM 35.1 °F 26.4 °F 33.6 °F 94% 29.89 in 3.0 mi North 12.7 mph 18.4 mph N/A Rain Light Rain
7:15 AM 35.1 °F 24.8 °F 33.4 °F 94% 29.87 in 2.5 mi North 17.3 mph 21.9 mph N/A   Light Drizzle
7:35 AM 34.9 °F 25.7 °F 33.4 °F 94% 29.87 in 2.0 mi NNE 13.8 mph 19.6 mph N/A   Light Drizzle
7:55 AM 35.1 °F 27.4 °F 33.8 °F 95% 29.90 in 2.0 mi North 10.4 mph - N/A   Overcast
8:15 AM 35.1 °F 27.4 °F 33.8 °F 95% 29.91 in 2.0 mi NNW 10.4 mph - N/A   Overcast
8:35 AM 34.9 °F 26.6 °F 33.6 °F 95% 29.90 in 2.0 mi NNE 11.5 mph - N/A   Overcast
8:55 AM 35.1 °F 29.3 °F 33.8 °F 95% 29.91 in 2.0 mi North 6.9 mph - N/A Rain Light Rain
9:15 AM 35.6 °F 29.2 °F 34.0 °F 94% 29.91 in 4.0 mi NNW 8.1 mph - N/A   Light Drizzle
9:35 AM 35.6 °F 27.1 °F 34.0 °F 94% 29.87 in 2.5 mi North 12.7 mph - N/A   Overcast
9:55 AM 35.6 °F 29.2 °F 34.0 °F 94% 29.90 in 2.0 mi NNW 8.1 mph - N/A   Overcast
10:15 AM 35.6 °F 27.5 °F 34.0 °F 94% 29.91 in 1.2 mi NW 11.5 mph - N/A   Drizzle
10:35 AM 35.4 °F 25.6 °F 33.8 °F 94% 29.91 in 1.2 mi NW 16.1 mph - N/A   Drizzle
10:55 AM 35.4 °F 25.6 °F 33.8 °F 94% 29.90 in 1.8 mi NNW 16.1 mph 19.6 mph N/A   Light Drizzle
11:15 AM 35.6 °F 27.1 °F 33.8 °F 93% 29.93 in 2.5 mi NNW 12.7 mph 17.3 mph N/A   Overcast
11:35 AM 35.2 °F 25.8 °F 33.4 °F 93% 29.94 in 1.8 mi NNW 15.0 mph - N/A   Light Drizzle
12:15 PM 35.2 °F 26.6 °F 33.3 °F 92% 29.96 in 3.0 mi NNW 12.7 mph 17.3 mph N/A   Overcast
12:35 PM 35.1 °F 25.9 °F 33.1 °F 92% 29.96 in 1.8 mi NNW 13.8 mph - N/A Rain Light Rain
12:55 PM 35.4 °F 26.4 °F 33.6 °F 93% 29.95 in 2.0 mi NNW 13.8 mph - N/A   Light Drizzle
1:15 PM 35.2 °F 26.6 °F 33.3 °F 92% 29.93 in 3.0 mi North 12.7 mph - N/A   Overcast
1:35 PM 34.7 °F 23.7 °F 32.9 °F 93% 29.91 in 4.0 mi NNW 19.6 mph - N/A   Overcast
2:15 PM 34.5 °F 23.4 °F 32.5 °F 92% 29.91 in 7.0 mi NNW 19.6 mph 23.0 mph N/A   Overcast
2:35 PM 34.2 °F 24.0 °F 32.2 °F 92% 29.89 in 10.0 mi NNW 16.1 mph 21.9 mph N/A   Overcast
2:55 PM 34.2 °F 25.2 °F 32.4 °F 93% 29.90 in 4.0 mi North 12.7 mph - N/A   Drizzle
3:15 PM 34.2 °F 24.4 °F 32.2 °F 92% 29.90 in 3.0 mi North 15.0 mph - N/A   Drizzle
3:35 PM 34.7 °F 25.1 °F 32.5 °F 92% 29.89 in 2.5 mi NNW 15.0 mph - N/A   Drizzle
3:55 PM 34.5 °F 27.3 °F 32.4 °F 92% 29.91 in 3.0 mi NNW 9.2 mph - N/A   Light Drizzle
4:15 PM 34.3 °F 25.5 °F 32.4 °F 92% 29.87 in 3.0 mi North 12.7 mph - N/A   Light Drizzle
4:35 PM 34.7 °F 25.1 °F 32.9 °F 93% 29.86 in 5.0 mi NNW 15.0 mph 18.4 mph N/A   Overcast
4:55 PM 34.7 °F 26.4 °F 32.5 °F 92% 29.86 in 10.0 mi NNW 11.5 mph - N/A   Overcast
5:15 PM 34.7 °F 27.5 °F 32.5 °F 92% 29.84 in 10.0 mi North 9.2 mph - N/A   Overcast
5:35 PM 34.9 °F 26.6 °F 32.9 °F 92% 29.83 in 10.0 mi North 11.5 mph - N/A   Overcast
5:55 PM 34.9 °F 25.3 °F 32.4 °F 91% 29.82 in 10.0 mi North 15.0 mph - N/A   Overcast
6:15 PM 35.1 °F 25.5 °F 32.4 °F 90% 29.81 in 10.0 mi North 15.0 mph - N/A   Overcast
6:35 PM 34.7 °F 24.7 °F 32.2 °F 91% 29.80 in 10.0 mi NNW 16.1 mph - N/A   Overcast
6:55 PM 34.7 °F 25.1 °F 32.2 °F 91% 29.79 in 10.0 mi NNW 15.0 mph - N/A   Overcast
7:15 PM 34.7 °F 28.1 °F 32.2 °F 91% 29.81 in 10.0 mi NNW 8.1 mph - N/A Rain Light Rain
7:35 PM 34.3 °F 27.7 °F 32.0 °F 91% 29.81 in 5.0 mi NNW 8.1 mph - N/A Rain Light Rain
7:55 PM 34.2 °F 26.2 °F 32.0 °F 92% 29.81 in 5.0 mi NNW 10.4 mph - N/A Rain Light Rain
8:15 PM 33.8 °F 27.7 °F 32.0 °F 93% 29.81 in 5.0 mi NNW 6.9 mph - 0.01 in   Overcast
8:35 PM 33.3 °F 26.4 °F 32.0 °F 95% 29.80 in 3.0 mi NNW 8.1 mph - 0.01 in Rain Light Rain
8:55 PM 33.1 °F 25.5 °F 32.0 °F 96% 29.80 in 4.0 mi NNW 9.2 mph - 0.02 in Rain Light Rain
9:15 PM 33.1 °F 28.7 °F 32.0 °F 96% 29.83 in 4.0 mi West 4.6 mph - N/A Snow Light Snow
9:55 PM 32.4 °F 26.9 °F 31.6 °F 97% 29.82 in 1.5 mi WNW 5.8 mph - 0.02 in Snow Light Snow
10:15 PM 32.4 °F 24.0 °F 31.6 °F 97% 29.79 in 1.5 mi NW 10.4 mph - N/A Snow Light Snow
10:35 PM 32.4 °F 25.3 °F 31.6 °F 97% 29.81 in 3.0 mi WNW 8.1 mph - N/A Snow Light Snow
10:55 PM 32.2 °F 25.0 °F 31.5 °F 97% 29.80 in 3.0 mi WNW 8.1 mph - N/A Snow Light Snow
11:15 PM 32.0 °F 24.2 °F 31.3 °F 97% 29.79 in 3.0 mi WNW 9.2 mph - 0.01 in Snow Light Snow
11:35 PM 32.0 °F 24.8 °F 31.1 °F 96% 29.80 in 2.0 mi WNW 8.1 mph - 0.01 in Snow Light Snow
11:55 PM 32.0 °F 24.8 °F 31.1 °F 96% 29.78 in 2.0 mi WNW 8.1 mph - 0.01 in Snow Light Snow